Hourly Data Report for September 24, 2017

All times are specified in Local Standard Time (LST). Add 1 hour to adjust for Daylight Saving Time where and when it is observed.

GRISE FIORD CLIMATE
NUNAVUT

76°25'22.040" N
82°54'08.020" W
44.50 m
2402351
71971
NGC

Download Data

Hourly Data (September 2017)
Hourly Data Report for September 24, 2017
Temp Definition
°C
Dew Point Temp Definition
°C
Rel Hum Definition
%
Wind Dir Definition
10's deg

Wind Spd Definition
km/h
Visibility Definition
km
Stn Press Definition
kPa
Hmdx Definition


Wind Chill Definition


Weather Definition


TIME
00:00 -0.9 -7.1 63 3 58   100.97   -10 LegendNANA
01:00 -1.4 -7.3 64 3 55   100.94   -10 LegendNANA
02:00 -1.5 -7.3 64 4 55   100.94   -11 LegendNANA
03:00 -1.8 -7.5 65 3 51   101.02   -11 LegendNANA
04:00 -2.2 -7.6 66 4 40   101.14   -10 LegendNANA
05:00 -2.3 -7.8 66 7 27   101.08   -9 LegendNANA
06:00 -2.6 -8.1 66 3 26   101.14   -9 LegendNANA
07:00 -2.7 -8.2 66 4 30   101.09   -10 LegendNANA
08:00 -3.2 -8.2 68 35 24   101.10   -10 LegendNANA
09:00 -2.5 -8.6 63 1 37   101.09   -10 LegendNANA
10:00 -2.9 -9.2 62 1 33   101.07   -11 LegendNANA
11:00 -2.8 -9.1 62 35 13   101.09   -7 LegendNANA
12:00 -2.7 -9.7 59 29 26   101.01   -10 LegendNANA
13:00 -3.0 -9.6 61 31 28   100.98   -10 LegendNANA
14:00 -2.9 -9.9 58 31 17   100.91   -8 LegendNANA
15:00 -3.1 -10.3 58 1 26   100.93   -10 LegendNANA
16:00 -2.9 -10.6 56 4 27   100.89   -10 LegendNANA
17:00 -3.2 -10.4 57 2 40   100.84   -12 LegendNANA
18:00 -2.8 -10.5 55 2 27   100.77   -10 LegendNANA
19:00 -3.7 -10.6 59 35 18   100.75   -10 LegendNANA
20:00 -4.4 -10.7 61 36 12   100.67   -9 LegendNANA
21:00 -3.8 -10.9 58 2 11   100.58   -8 LegendNANA
22:00 -4.0 -11.4 57 2 33   100.53   -12 LegendNANA
23:00 -3.6 -11.7 53 3 36   100.45   -12 LegendNANA

Notes on Data Quality.

Legend

  • E = Estimated
  • M = Missing
  • NA = Not Available
  • ‡ = Partner data that is not subject to review by the National Climate Archives
Date modified: